[[{"header":{"parameterUnit":"m.s-1","parameterCategory":1,"la1":30.2991,"la2":30.254,"lo1":-89.0895,"lo2":-89.0444,"dy":0.0017,"dx":0.0017,"nx":28,"ny":28,"refTime":"2024-12-08T09:00:00:Z","depth":0,"parameterNumber":2,"parameterNumberName":"U-component_of_WINDS"},"data":[0,0,0,0,0,0,0,0,0,0,0,0,0,0,0,0,0,0,0,0,0,0,0,0,0,0,0,0,0,0,0,0,0,0,0,0,0,0,0,0,0,0,0,0,0,0,0,0,0,0,0,0,0,0,0,0,0,0,-3.6936,-3.6936,0,-3.699,-3.6991,-3.6992,-3.6987,-3.6986,-3.6985,-3.6985,-3.7038,-3.704,-3.7042,0,0,0,0,0,0,0,0,0,0,0,0,0,-3.6825,-3.6827,-3.6935,-3.6936,-3.6937,-3.699,-3.6991,-3.6992,-3.6987,-3.6986,-3.6985,-3.6984,-3.7037,-3.7039,-3.7042,0,0,0,0,0,0,0,0,0,0,0,0,0,-3.6876,-3.6828,-3.6935,-3.6941,-3.6942,-3.699,-3.6991,-3.6992,-3.6987,-3.6986,-3.6985,-3.6984,-3.7036,-3.7039,-3.7042,-3.7087,0,0,-3.7052,-3.7054,0,0,0,0,0,0,0,0,-3.6873,-3.688,-3.694,-3.6941,-3.6942,-3.6981,-3.6971,-3.7024,-3.6988,-3.697,-3.6985,-3.6983,-3.7019,-3.7024,-3.7037,-3.709,-3.7092,-3.7053,-3.7055,-3.7056,-3.7057,0,0,0,0,0,0,0,-3.6869,-3.6877,-3.6957,-3.694,-3.6942,-3.694,-3.6946,-3.6981,-3.7001,-3.6972,-3.6971,-3.6978,-3.702,-3.7034,-3.7038,-3.7093,-3.7053,-3.7055,-3.7057,-3.7059,-3.7185,-3.7187,0,0,0,0,0,0,-3.6865,-3.6874,-3.6955,-3.6959,-3.6904,-3.6943,-3.695,-3.6969,-3.7001,-3.7004,-3.6979,-3.6978,-3.7029,-3.7034,-3.704,-3.7094,-3.7056,-3.7059,-3.7061,-3.7184,-3.7186,-3.7187,0,0,0,0,0,0,-3.6862,-3.6872,-3.6953,-3.6917,-3.6927,-3.6947,-3.6969,-3.6971,-3.6985,-3.7006,-3.7009,-3.699,-3.7028,-3.7035,-3.7076,-3.7095,-3.706,-3.7063,-3.7182,-3.7185,-3.7186,-3.7202,0,0,0,0,0,0,-3.6859,-3.6871,-3.6889,-3.6917,-3.6929,-3.6989,-3.697,-3.6973,-3.6991,-3.699,-3.7017,-3.702,-3.7028,-3.7071,-3.7079,-3.7099,-3.7066,-3.7181,-3.7183,-3.7186,-3.72,-3.7205,-3.7209,0,0,0,0,0,-3.6855,-3.689,-3.6889,-3.6899,-3.6951,-3.699,-3.6996,-3.7005,-3.6993,-3.701,-3.7024,-3.702,-3.7093,-3.7075,-3.7084,-3.7106,-3.7179,-3.7183,-3.7186,-3.7198,-3.7204,-3.7209,0,0,0,0,0,0,-3.6862,-3.6894,-3.6893,-3.6939,-3.6962,-3.6989,-3.7011,-3.701,-3.7036,-3.7034,-3.7043,-3.7049,-3.7089,-3.7102,-3.7082,-3.7151,-3.7134,-3.7139,-3.7141,-3.7146,-3.7151,-3.7145,-3.7069,0,0,0,0,0,-3.6869,-3.6898,-3.6925,-3.6962,-3.6974,-3.6991,-3.7008,-3.7013,-3.7036,-3.7045,-3.7062,-3.7084,-3.7113,-3.7131,-3.7158,-3.7203,-3.7208,-3.7223,-3.7227,-3.723,-3.7234,-3.7258,-3.7265,-3.7198,-3.7198,-3.7198,0,0,-3.6883,-3.6904,-3.6922,-3.6964,-3.6982,-3.7011,-3.6998,-3.703,-3.7052,-3.705,-3.7089,-3.7102,-3.7128,-3.7171,-3.7191,-3.7183,-3.7254,-3.7234,-3.7237,-3.7238,-3.7262,-3.7268,-3.7274,-3.72,-3.7199,-3.7199,0,0,-3.6923,-3.6943,-3.6976,-3.6995,-3.7024,-3.7035,-3.7043,-3.7071,-3.708,-3.7121,-3.712,-3.7146,-3.7194,-3.7212,-3.7228,-3.7278,-3.7274,-3.7287,-3.7308,-3.7332,-3.7337,-3.7342,-3.7358,-3.7364,-3.7291,-3.7291,-3.7291,0,-3.6936,-3.6981,-3.6992,-3.7025,-3.7043,-3.7045,-3.7078,-3.7096,-3.7132,-3.7144,-3.7135,-3.7197,-3.7214,-3.7261,-3.7274,-3.7287,-3.7296,-3.7282,-3.7336,-3.734,-3.7345,-3.7361,-3.7367,-3.7292,-3.7292,-3.7292,-3.7292,0,-3.6995,-3.7027,-3.705,-3.7086,-3.7107,-3.714,-3.7156,-3.7176,-3.718,-3.7192,-3.7233,-3.7255,-3.7286,-3.7298,-3.7302,-3.7346,-3.734,-3.7334,-3.7317,-3.7352,-3.7367,-3.7373,-3.7294,-3.7293,-3.7293,-3.7293,0,0,-3.7037,-3.7081,-3.7089,-3.7106,-3.7139,-3.7163,-3.7196,-3.7228,-3.7245,-3.7271,-3.7297,-3.734,-3.7334,-3.7352,-3.7358,-3.738,-3.7417,-3.7371,-3.7371,-3.7377,-3.7466,-3.7469,-3.7475,-3.7416,-3.7417,-3.7418,-3.7463,0,-3.7079,-3.7138,-3.7151,-3.7201,-3.723,-3.7234,-3.7263,-3.7286,-3.7299,-3.7325,-3.734,-3.7369,-3.736,-3.7371,-3.7393,-3.7408,-3.7434,-3.7405,-3.744,-3.7441,-3.743,-3.7483,-3.7486,-3.7527,-3.7469,-3.747,-3.7471,0,-3.7135,-3.7163,-3.7217,-3.7247,-3.726,-3.7285,-3.7316,-3.7342,-3.7368,-3.7377,-3.7398,-3.7402,-3.7436,-3.742,-3.7467,-3.7447,-3.7462,-3.7472,-3.7474,-3.7475,-3.7456,-3.7484,-3.7541,-3.7546,-3.748,-3.748,-3.7479,0,-3.7158,-3.721,-3.7249,-3.7263,-3.7299,-3.7317,-3.7333,-3.7359,-3.7378,-3.7405,-3.7418,-3.7448,-3.7464,-3.7488,-3.75,-3.7488,-3.7546,-3.7531,-3.7552,-3.7552,-3.7561,-3.756,-3.7619,-3.7576,-3.7576,-3.7575,-3.7575,0,-3.7202,-3.7234,-3.7259,-3.7283,-3.732,-3.7334,-3.737,-3.7386,-3.7409,-3.7435,-3.7441,-3.7466,-3.7482,-3.7509,-3.7519,-3.7555,-3.7563,-3.757,-3.7571,-3.7568,-3.7567,-3.7576,-3.7572,-3.7577,-3.7577,-3.7576,-3.7576,0,-3.7232,-3.7251,-3.7293,-3.7325,-3.7334,-3.736,-3.7387,-3.741,-3.7425,-3.7458,-3.7467,-3.7489,-3.7521,-3.7537,-3.7576,-3.7583,-3.7624,-3.7625,-3.7615,-3.7615,-3.7635,-3.7632,-3.7699,-3.7708,-3.7661,-3.7662,-3.7662,0,-3.7257,-3.7282,-3.7318,-3.7337,-3.7354,-3.7384,-3.7404,-3.742,-3.744,-3.7474,-3.7492,-3.7525,-3.7552,-3.7603,-3.7622,-3.7652,-3.7653,-3.7675,-3.7657,-3.7653,-3.7651,-3.7648,-3.765,-3.7677,-3.7677,-3.7677,-3.7678,0,-3.73,-3.7308,-3.7337,-3.737,-3.7394,-3.742,-3.7446,-3.7461,-3.7481,-3.7504,-3.7537,-3.7558,-3.76,-3.7632,-3.7664,-3.768,-3.7682,-3.7684,-3.769,-3.7685,-3.7677,-3.768,-3.7621,-3.7681,-3.7681,-3.7681,-3.768,-3.768,-3.7327,-3.7349,-3.7378,-3.7411,-3.7433,-3.7457,-3.748,-3.7499,-3.7527,-3.7563,-3.7571,-3.7606,-3.7634,-3.7677,-3.7695,-3.7722,-3.7717,-3.7726,-3.7728,-3.773,-3.773,-3.7675,-3.7728,-3.7728,-3.7728,-3.7728,-3.7728,0,-3.7368,-3.7387,-3.7417,-3.7454,-3.748,-3.7482,-3.7511,-3.7532,-3.7563,-3.7589,-3.7616,-3.7655,-3.7687,-3.771,-3.7742,-3.7759,-3.7761,-3.7767,-3.7764,-3.7768,-3.7733,-3.7724,-3.7765,-3.7765,-3.7765,-3.7765,-3.7765,-3.7765,-3.7392,-3.743,-3.7443,-3.7492,-3.7511,-3.7547,-3.7563,-3.7586,-3.7606,-3.765,-3.7677,-3.7692,-3.7717,-3.7751,-3.7781,-3.7787,-3.7797,-3.7803,-3.7808,-3.7775,-3.777,-3.7767,-3.7758,-3.7806,-3.7806,-3.7841,-3.7841,-3.7841]},{"header":{"parameterUnit":"m.s-1","parameterCategory":1,"la1":30.2991,"la2":30.254,"lo1":-89.0895,"lo2":-89.0444,"dy":0.0017,"dx":0.0017,"nx":28,"ny":28,"refTime":"2024-12-08T09:00:00:Z","depth":0,"parameterNumber":3,"parameterNumberName":"V-component_of_WINDS"},"data":[0,0,0,0,0,0,0,0,0,0,0,0,0,0,0,0,0,0,0,0,0,0,0,0,0,0,0,0,0,0,0,0,0,0,0,0,0,0,0,0,0,0,0,0,0,0,0,0,0,0,0,0,0,0,0,0,0,0,2.0228,2.0229,0,2.0265,2.0266,2.0266,2.0271,2.027,2.027,2.027,2.0307,2.0309,2.031,0,0,0,0,0,0,0,0,0,0,0,0,0,2.0163,2.0164,2.0228,2.0229,2.0229,2.0265,2.0266,2.0266,2.0271,2.027,2.027,2.027,2.0307,2.0308,2.031,0,0,0,0,0,0,0,0,0,0,0,0,0,2.0195,2.0165,2.0228,2.0236,2.0237,2.0265,2.0266,2.0267,2.0271,2.027,2.027,2.0269,2.0306,2.0308,2.031,2.0333,0,0,2.0316,2.0317,0,0,0,0,0,0,0,0,2.0193,2.0197,2.0234,2.0235,2.0237,2.0263,2.0257,2.0289,2.0271,2.0258,2.027,2.0269,2.0293,2.0296,2.0304,2.0335,2.0337,2.0317,2.0318,2.0319,2.0319,0,0,0,0,0,0,0,2.0191,2.0196,2.0243,2.0235,2.0236,2.0238,2.0242,2.0263,2.0278,2.0259,2.0259,2.0264,2.0293,2.0302,2.0305,2.0337,2.0316,2.0318,2.0319,2.032,2.0393,2.0394,0,0,0,0,0,0,2.0187,2.0194,2.0242,2.0244,2.0213,2.024,2.0244,2.0255,2.0278,2.0281,2.0264,2.0264,2.0299,2.0303,2.0306,2.0338,2.0319,2.032,2.0322,2.0392,2.0393,2.0394,0,0,0,0,0,0,2.0186,2.0191,2.024,2.0219,2.0226,2.0241,2.0254,2.0256,2.0265,2.0282,2.0285,2.027,2.0299,2.0304,2.0328,2.0339,2.0321,2.0323,2.0391,2.0392,2.0393,2.0399,0,0,0,0,0,0,2.0184,2.0191,2.0199,2.0219,2.0227,2.026,2.0254,2.0257,2.0268,2.0268,2.0288,2.0291,2.0299,2.0325,2.033,2.0341,2.0325,2.039,2.0392,2.0393,2.0398,2.04,2.0402,0,0,0,0,0,2.0181,2.0198,2.02,2.0205,2.0237,2.0261,2.0265,2.0274,2.0269,2.0278,2.029,2.029,2.0337,2.0327,2.0333,2.0345,2.039,2.0391,2.0393,2.0397,2.04,2.0402,0,0,0,0,0,0,2.0178,2.0201,2.0203,2.0227,2.0242,2.0262,2.0273,2.0276,2.0293,2.0292,2.0302,2.0306,2.0331,2.034,2.0329,2.0371,2.0363,2.0366,2.0364,2.0367,2.0369,2.0367,2.0326,0,0,0,0,0,2.0181,2.0198,2.0216,2.0236,2.0244,2.0257,2.0268,2.0273,2.029,2.0296,2.0309,2.0325,2.0343,2.0355,2.0373,2.0399,2.0405,2.0411,2.0413,2.0414,2.0417,2.0435,2.0439,2.0399,2.0399,2.0399,0,0,2.0185,2.02,2.021,2.0236,2.0248,2.0267,2.0263,2.0281,2.0296,2.0299,2.0323,2.0333,2.0352,2.0378,2.039,2.0386,2.0429,2.0416,2.0417,2.042,2.0437,2.0441,2.0444,2.04,2.04,2.04,0,0,2.0204,2.0215,2.0234,2.0247,2.0267,2.0276,2.0281,2.0301,2.0308,2.0333,2.0336,2.0353,2.0384,2.0398,2.0409,2.0436,2.0438,2.0441,2.0453,2.047,2.0473,2.0476,2.0488,2.0492,2.0444,2.0444,2.0444,0,2.0207,2.0234,2.0243,2.0263,2.0276,2.028,2.03,2.0313,2.0337,2.0346,2.0341,2.0382,2.0395,2.0426,2.0433,2.044,2.0448,2.044,2.0472,2.0475,2.0478,2.0489,2.0494,2.0444,2.0444,2.0444,2.0444,0,2.0239,2.0258,2.0271,2.0296,2.0309,2.0329,2.0342,2.0355,2.036,2.037,2.0397,2.0412,2.0435,2.0442,2.0446,2.0474,2.0472,2.047,2.0462,2.0482,2.0493,2.0497,2.0445,2.0445,2.0444,2.0444,0,0,2.0255,2.0286,2.0291,2.0304,2.0327,2.0342,2.0363,2.0386,2.0398,2.0415,2.0434,2.0461,2.046,2.0473,2.0479,2.0494,2.0518,2.049,2.0491,2.0497,2.0554,2.0557,2.0562,2.0519,2.052,2.052,2.0553,0,2.0278,2.0315,2.0325,2.0358,2.0377,2.0383,2.0402,2.0419,2.0429,2.0448,2.0459,2.048,2.0475,2.0484,2.0498,2.0512,2.053,2.0509,2.0539,2.054,2.0536,2.0568,2.0571,2.0601,2.0557,2.0558,2.0558,0,2.0309,2.0328,2.0363,2.0386,2.0395,2.0411,2.0435,2.0452,2.0472,2.0479,2.0495,2.05,2.0524,2.0515,2.0549,2.0535,2.0547,2.0556,2.0557,2.0562,2.0552,2.0576,2.061,2.0616,2.0565,2.0564,2.0564,0,2.032,2.0355,2.0381,2.0391,2.0419,2.0431,2.0443,2.0462,2.0477,2.0497,2.0507,2.0529,2.0542,2.056,2.0572,2.0563,2.0606,2.0597,2.0614,2.0614,2.0624,2.0624,2.0664,2.0629,2.0628,2.0628,2.0628,0,2.0345,2.0367,2.0387,2.0403,2.0429,2.0441,2.0465,2.0478,2.0496,2.0516,2.0521,2.054,2.0554,2.0575,2.0584,2.0613,2.0618,2.0626,2.0628,2.0627,2.0626,2.0636,2.0636,2.063,2.0629,2.0629,2.0629,0,2.0363,2.0377,2.0406,2.0431,2.0438,2.0456,2.0477,2.0494,2.0505,2.0531,2.0537,2.0556,2.0581,2.0595,2.0626,2.0633,2.0666,2.0666,2.0659,2.0661,2.0679,2.0678,2.0729,2.0738,2.0694,2.0694,2.0695,0,2.0379,2.0396,2.0423,2.0437,2.045,2.0472,2.0487,2.05,2.0516,2.0542,2.0557,2.0582,2.0604,2.0645,2.0661,2.0686,2.0689,2.0705,2.0692,2.0691,2.0693,2.0692,2.0696,2.0707,2.0708,2.0708,2.0708,0,2.0406,2.0413,2.0435,2.046,2.0478,2.0498,2.0518,2.053,2.0546,2.0564,2.0591,2.0608,2.0641,2.0668,2.0695,2.0708,2.0712,2.0712,2.0718,2.0718,2.0714,2.072,2.0668,2.0711,2.0711,2.0711,2.0711,2.071,2.0425,2.0442,2.0465,2.049,2.0507,2.0526,2.0544,2.0559,2.0582,2.0611,2.0617,2.0646,2.0669,2.0706,2.072,2.0744,2.0741,2.0749,2.0751,2.0753,2.0756,2.0709,2.0748,2.0748,2.0748,2.0748,2.0748,0,2.0455,2.0471,2.0494,2.0523,2.0543,2.0545,2.0569,2.0586,2.0612,2.0633,2.0655,2.0687,2.0714,2.0734,2.0762,2.0777,2.078,2.0784,2.0785,2.0788,2.0755,2.0749,2.0782,2.0782,2.0782,2.0782,2.0782,2.0782,2.0473,2.0503,2.0514,2.0553,2.0569,2.0598,2.0612,2.063,2.0648,2.0684,2.0707,2.072,2.0742,2.0772,2.0797,2.0803,2.0814,2.0819,2.0824,2.0794,2.079,2.0787,2.0781,2.082,2.082,2.0856,2.0856,2.0856]}]]